Location: ???????
(55.4362°N, 38.1183°E)
Time: 05:56:49
(UTC+00:00)

Lacrosse 4 Rocket - Pass Details

Date: 23 October 2021
Orbit: 537 x 619 km, 68.0° (Epoch: 30 November)

Event Time Altitude Azimuth Distance (km) Brightness Sun altitude
Rises 15:44:58 0° 318° (NW) 2,797 5.6 -14.3°
Reaches altitude 10° 15:47:12 10° 315° (NW) 1,908 4.7 -14.6°
Maximum altitude 15:51:25 61° 236° (SW) 679 2.0 -15.2°
Drops below altitude 10° 15:55:44 10° 156° (SSE) 1,944 3.9 -15.8°
Enters shadow 15:56:36 - 155° (SSE) 2,292 4.2 -15.9°
